Regional Weather Roundup
Issued by NWS

Home | Current Version | Previous Version | Text Only | Print | Product List | Glossary Off
Versions: 1 2 3 4 5 6 7 8 9 10 11 12 13 14 15 16 17 18 19 20 21 22 23 24 25 26 27 28 29 30 31 32 33 34 35 36 37 38 39 40 41 42 43 44 45 46 47 48 49 50

000
ASUS43 KLOT 311902
RWRIL

ILLINOIS REGIONAL WEATHER ROUNDUP
NATIONAL WEATHER SERVICE CHICAGO/ROMEOVILLE IL
200 PM CDT MON AUG 31 2015

NOTE: "FAIR" INDICATES FEW OR NO CLOUDS BELOW 12,000 FEET WITH NO
SIGNIFICANT WEATHER AND/OR OBSTRUCTIONS TO VISIBILITY.

* THESE STATIONS ARE NOT UNDER NWS QUALITY CONTROL. THEY ALSO MAY NOT
  REPORT WEATHER SUCH AS PRECIPITATION OR FOG.

ILZ001-002-007-009-015-016-024-312000-
NORTHWEST ILLINOIS

CITY           SKY/WX    TMP DP  RH WIND       PRES   REMARKS
MOLINE         MOSUNNY   87  70  56 VRB7      30.02F HX  92
STERLING*        N/A    N/A N/A N/A MISG        N/A
$$

ILZ003-004-008-010-011-017-018-312000-
NORTH CENTRAL ILLINOIS

CITY           SKY/WX    TMP DP  RH WIND       PRES   REMARKS
ROCKFORD       MOSUNNY   84  68  58 S8        30.06F HX  87
$$

ILZ005-006-012>014-019>023-312000-
NORTHEAST ILLINOIS

CITY           SKY/WX    TMP DP  RH WIND       PRES   REMARKS
CHICAGO-OHARE  MOSUNNY   83  67  58 S7        30.05F HX  85
CHICAGO-MIDWAY MOSUNNY   86  67  52 VRB3      30.04F HX  89
AURORA         PTSUNNY   84  70  62 S6        30.06F HX  88
WAUKEGAN       SUNNY     76  67  73 E7        30.05F
DUPAGE AIRPORT MOSUNNY   84  69  60 S7        30.05F HX  88
WHEELING       SUNNY     84  67  56 VRB6      30.06F HX  86
NORTHERLY ISL    N/A     74  69  85 E5          N/A
$$

LMZ740>746-312000-
SOUTHERN LAKE MICHIGAN

STATION/POSITION SKY/WX   TEMP    WIND        PRES    VSBY  WAVE
                          AIR SEA DIR/SP/G                  HT/PER
                          (F)     (DEG/KT/KT) (MB)    (MI)  (FT/S)
SOUTHERN BUOY              70 72  160/  4/  4 1017.8F         0
WILMETTE HARBOR            66 63  280/  6/  6   N/A           0
HARRISON CRIB              71     100/  9/ 10   N/A
BURNHAM HARBOR             74      90/  3/  6   N/A
CALUMET HARBOR             74      50/  7/  9   N/A
BURNS HARBOR               76      40/  6/  7 1019.0F
MICHIGAN CITY              72     360/  3/  4   N/A
MICHIGAN CITY 6N           73 73   20/  4/  4   N/A           0
ST. JOSEPH                 71 74  350/  2/  4   N/A           0
$$

ILZ025>027-034>036-040-047-049-050-058-095>099-312000-
WEST-CENTRAL ILLINOIS

CITY           SKY/WX    TMP DP  RH WIND       PRES   REMARKS
QUINCY         MOSUNNY   88  70  55 SE7       30.01F HX  93
$$

ILZ028>032-037-038-041>044-048-051>054-059>061-312000-
CENTRAL ILLINOIS

CITY           SKY/WX    TMP DP  RH WIND       PRES   REMARKS
DECATUR        CLOUDY    84  71  65 S13       30.06F HX  89
PEORIA         MOSUNNY   89  69  51 CALM      30.03F HX  93
SPRINGFIELD    MOSUNNY   91  72  53 S9        30.03F HX  98
TAYLORVILLE    NOT AVBL
$$

ILZ033-039-045-046-055>057-062-063-312000-
EAST-CENTRAL ILLINOIS

CITY           SKY/WX    TMP DP  RH WIND       PRES   REMARKS
CHAMPAIGN      MOSUNNY   85  71  63 SW6       30.07F HX  90
MATTOON        MOSUNNY   82  69  64 SW8       30.08F HX  85
$$

ILZ079-100>102-312000-
SOUTHWEST ILLINOIS

CITY           SKY/WX    TMP DP  RH WIND       PRES   REMARKS
BELLEVILLE     PTSUNNY   87  76  69 VRB3      30.04F HX  98
CAHOKIA*       PTSUNNY   90  71  53 SW7       30.03F HX  96
$$

ILZ064>066-069>071-074>076-080>082-084>086-088>090-092>094-312000-
SOUTH-CENTRAL ILLINOIS

CITY           SKY/WX    TMP DP  RH WIND       PRES   REMARKS
CARBONDALE     MOSUNNY   86  71  60 S10       30.08F HX  91
MARION         MOSUNNY   86  70  58 S9        30.09F HX  90
MT. VERNON     PTSUNNY   88  70  55 S6        30.09S HX  92
$$

ILZ067-068-072-073-078-083-087-091-312000-
SOUTHEAST ILLINOIS

CITY           SKY/WX    TMP DP  RH WIND       PRES   REMARKS
LAWRENCEVILLE  PTSUNNY   86  68  54 SE7       30.09F HX  89
ROBINSON*      PTSUNNY   85  69  58 W5        30.09F HX  88
$$

ABBREVIATIONS USED IN REMARKS
   TC - TEMPERATURE IN CELSIUS
  WCI - WIND CHILL INDEX
   HX - HEAT INDEX
  VSB - VISIBILITY
$$



USA.gov is the U.S. government's official web portal to all federal, state and local government web resources and services.